THOR ABLESTAR DEB, 155

Orbit data source: Space-Track

THOR ABLESTAR DEB, 155 is space debris in LEO originally from a launch on Thu, 29 Jun 1961 UTC launched from the Air Force Eastern Test Range (AFETR). Debris objects in space refer to the collection of defunct objects orbiting the Earth. Examples of debris include non-operational satellites, rocket bodies, and fragments generated from explosions, collisions, or faulty payload assembly.

Loading next visibility...
Identifier
155, 1961-015AR
Orbit
LEO
Country
Flag of USUS
Related business
Manufacturer
Unknown
Mission
Spacecraft
Bus & Motor
Unknown
Mass
Unknown
Launch date (UTC)
1961-06-29 (65 years ago)
Launch vehicle
Unknown
Launch site
Air Force Eastern Test Range (AFETR)
Object type
Payload
Rocket body
Debris
Shape & HBR
Unknown shape, 0.1 m
Radar Cross Section
Medium (>0.1 m² and <1 m²)

Expand to show TLE details & history
Last TLE update: 17 hours ago

TLE from 17 hours ago
0 THOR ABLESTAR DEB
1 00155U 61015AR  26235.97572586  .00001448  00000-0  37346-3 0  9994
2 00155  66.8743  83.2770 0041529 209.1518 150.7275 14.52441395370950
Epoch: 2026-08-23T23:25Z
TLE epoch observation values (Epoch: 2026-08-23T23:25:02.714Z)
Latitude
-0.00002°
Longitude
119.75162°
Altitude
745.566 km
Speed
7.469 km/s
True Right ascension
05h 33m 06s
True Declination
0° 00' 00"
Sunlit
Object was in daylight at epoch
Visualization orbit readout
Latitude
Unknown
Longitude
Unknown
Altitude
Unknown
Speed
Unknown
Apparent Right ascension
Unknown
Apparent Declination
Unknown
Sunlit
N/A
Visualization observer readout
Local Sidereal Time
07:39:14
Azimuth
Unknown
Elevation
Unknown
Doppler factor
Unknown
Orbital elements
Apogee altitude
745.485 km
Perigee altitude
686.562 km
Semi-major axis
7,094.16 km
Eccentricity
0.00415
Inclination
66.8743°
RAAN
83.277°
Arg. of periapsis
209.1518°
True anomaly
150.95914°
Mean anomaly
150.7275°
Eccentric anomaly
150.84343°
Mean motion
3.63238 °/min
Orbital period
99.11 mins
BSTAR
0.00037346
Loading maneuver chart data...
Computing Atmospheric mass density...

Documentation

Showing up to 5 results
|